Погода в Пятиречье

Россия / Сахалинская область     47°00′54″N   142°15′42″E
темп.,
°C
ветер,
м/с
пор.,
м/с
влажн.,
%
обл.,
%
осадки,
мм/ч
давл.,
гПа
погр.,
м
13 июня, вс
вс1323:00+10зюз31199100 3.6 1002536
02:00+11зюз2999100 2.1 1003296
05:00+11з2799100 2.1 1003274
08:00+11зсз299895 0.0 1005352
11:00+15сз5107599 0.0 1005610
14:00+17сз5106311 0.0 1006828
17:00+16сз47650 0.0 1006649
20:00+12сз37775 0.0 1008352
14 июня, пн
пн1423:00+7сз229736 0.0 101061
02:00+5зсз23976 0.0 101062
05:00+5зсз2398100 0.0 101095
08:00+8сз2484100 0.0 1010328
11:00+13в126999 0.0 1010744
14:00+14юв1271100 0.0 1011925
17:00+14в2370100 0.0 1010690
20:00+12в347745 0.0 1012601
15 июня, вт
вт1523:00+7вюв119893 0.0 101312
02:00+8всв119669 0.0 101450
05:00+8всв1293100 0.0 1013136
08:00+9в248782 0.0 1014293
11:00+14вюв236926 0.0 1013630
14:00+18вюв2361100 0.0 10121249
17:00+15ююв237286 0.0 1013689
20:00+12ююв348023 0.0 1013420
16 июня, ср
ср1623:00+6юв229938 0.0 101467
02:00+6юв119943 0.0 101435
05:00+5юв229954 0.0 101358
08:00+9юв239479 0.0 1013189
11:00+17ю246514 0.0 1012609
14:00+22юз24546 0.0 10111222
17:00+21зюз2459100 0.0 1011972
20:00+17ююз1281100 0.0 1011100
17 июня, чт
чт1723:00+11ююв229819 0.0 101228
02:00+11ююв119810 0.0 101118
05:00+11ю11976 0.0 101113
08:00+15ююз129116 0.0 1011212
11:00+21юз2462100 0.0 10101026
14:00+23зюз3456100 0.0 10081423
17:00+21зюз446295 0.0 10081031
20:00+17зсз2480100 0.0 1009378